STARLINK-1797, 46698

Orbit data source: Space-Track

STARLINK-1797, 46698 is a payload satellite owned by SpaceX/Seattle (US) in LEO that was launched on Sun, 18 Oct 2020 UTC via an FALCON 9 launch vehicle from the Air Force Eastern Test Range (AFETR). Payloads include a variety of satellites, spacecraft, and rockets equipped with specific instruments for various scientific and technological missions. These include communications satellites like Starlink; space stations such as the ISS; scientific satellites like the Hubble; Earth observation satellites from companies like Planet Labs, Umbra, and HawkEye 360; GPS; miniature CubeSats for education and research; and military/defense satellites.

Loading next visibility...
STARLINK-1797 details
Identifier
46698, 2020-073AE
Orbit
LEO
Last TLE update14 hours ago
Origin
Flag of USSpaceX/Seattle (US)
ManufacturerSpaceX/Seattle
MissionOperational Commercial Communications
Bus & MotorSTARLINK, Unknown motor
Mass260 kg wet, ~248 kg dry
Launch date (UTC)
2020-10-18 (4 years ago)
Launch vehicle
FALCON 9
Launch site
Air Force Eastern Test Range (AFETR)
Object type
Payload
Rocket body
Debris
Shape & HBRBox + 1 Pan, 8.86 m
Radar Cross Section13.562 m², Large (>1 m²)

Expand to show TLE details & history

TLE from 14 hours ago
0 STARLINK-1797
1 46698U 20073AE  24360.89074597  .00019081  00000-0  12978-2 0  9997
2 46698  53.0547  52.0354 0001508  79.9152 280.2007 15.06360356231443
Epoch: 2024-12-25T21:22Z
Definitive object data (Epoch: 2024-12-25T21:22:40.451Z)
Latitude-0.00004°
Longitude-3.51118°
Altitude548.027 km
Speed7.589 km/s
True Right ascension03h 28m 08s
True Declination0° 00' 00"
Sunlit
Object was in full shadow at TLE epoch
Visualization TLE readout
Latitude-51.64451°
Longitude-77.06865°
Altitude566.142 km
Speed7.577 km/s
Apparent Right ascension22h 38m 47s
Apparent Declination-45° 51' 15"
Sunlit
Object is in daylight
Visualization observer readout
Local Sidereal Time10:43:05
Azimuth172.81° S
Elevation-84.01°
Doppler factor1
Orbital elements
Apogee altitude548.648 km
Perigee altitude546.559 km
Semi-major axis6,925.741 km
Eccentricity0.0001508
Inclination53.0547°
RAAN52.0354°
Arg. of periapsis79.9152°
True anomaly280.18369°
Mean anomaly280.2007°
Eccentric anomaly280.1922°
Mean motion3.76568 °/min
BSTAR0.0012978
Orbital period95.6 mins
Loading maneuver chart data...
Loading historical data...
Loading historical data...
Loading historical data...
Loading historical data...
Loading historical data...
Loading historical data...
Loading historical data...

STARLINK-1797 Visibility forecast

Observer location: undefined°, undefined

Span
Click to sort rows by Start time (UTC) header in descending order
Start Az.
Max El. time (UTC)
Max El. Az.
Max El.
End time (UTC)
End Az.
7 mins2024-12-26 12:09:44.954Z325.772° NNW2024-12-26 12:13:44.954Z41.275° NE26.474°2024-12-26 12:16:44.954Z90.225° ESE
6 mins2024-12-26 13:50:44.954Z287.112° WNW2024-12-26 13:52:44.954Z234.95° WSW35.107°2024-12-26 13:56:44.954Z153.57° SSE
5 mins2024-12-27 05:23:44.954Z181.077° SSW2024-12-27 05:25:44.954Z133.462° SE28.599°2024-12-27 05:28:44.954Z72.695° E
6 mins2024-12-27 07:02:44.954Z269.372° W2024-12-27 07:05:44.954Z346.18° N30.476°2024-12-27 07:08:44.954Z35.833° NE
|